Wind_Speed
18 20 20 21 20 18 17 16 14 13 13 13 15 16 17 17 18 18 18 19 19 20 20 20 20 20 20 20 20 20 20 20 20 20 21 21 22 22 23 23 24 24 24 24 24 23 23 22 22 23 24 24 23 22 22 23 25 26 25 24 24 25 26 28 31 34 35 36 36 37 38 39 39 39 39 38 36 35 34 32 30 30 29 28 27
19 20 20 20 19 17 16 15 14 13 13 14 15 16 17 18 18 18 19 19 19 20 20 21 21 21 21 20 20 20 19 19 20 20 21 21 22 22 23 23 23 23 24 24 24 23 22 22 22 23 24 24 23 22 22 22 22 23 23 22 22 23 24 25 28 30 33 35 35 36 36 37 38 39 40 39 37 36 36 35 33 31 30 30 28
19 20 20 19 18 16 15 15 14 13 14 15 15 16 17 18 18 18 18 19 19 20 20 21 21 21 21 20 20 20 20 20 20 20 20 21 21 22 22 22 22 22 23 24 24 24 23 22 21 22 23 23 22 21 21 21 21 21 21 21 20 20 22 24 25 27 30 32 34 35 35 36 37 38 39 40 39 38 37 37 36 33 32 32 30
19 20 19 18 17 16 15 14 14 13 14 15 16 17 17 18 18 18 18 18 19 20 20 21 21 21 21 21 20 20 20 20 20 20 21 21 21 20 21 21 21 21 22 23 23 23 22 22 21 21 22 23 22 20 20 20 20 20 20 19 18 18 20 22 23 24 26 30 32 34 34 35 36 37 38 39 39 39 38 38 37 35 34 34 31
19 19 18 17 16 15 14 14 14 14 14 15 16 17 17 17 17 17 18 18 19 20 21 21 22 22 22 21 21 21 21 21 20 20 21 21 21 20 19 19 19 19 20 21 22 22 22 22 21 21 22 23 22 21 19 19 19 19 19 18 17 17 18 20 21 21 23 26 30 32 33 34 35 36 38 39 40 40 40 39 38 37 36 35 34
18 18 18 16 16 15 13 13 13 14 15 15 16 16 17 17 17 17 18 18 19 20 21 21 22 22 22 22 22 21 21 21 21 20 21 21 21 20 19 18 18 18 18 19 20 21 21 21 21 21 21 22 23 22 20 18 18 18 18 17 16 16 16 18 19 19 20 23 27 31 32 33 35 36 38 39 39 40 40 40 39 38 37 37 37
17 17 17 15 15 14 13 12 13 14 15 15 15 16 16 16 16 17 18 18 19 20 21 22 22 23 23 23 22 22 22 22 21 20 20 21 21 20 19 19 18 18 18 18 19 19 20 20 21 21 21 22 22 22 20 18 17 17 16 16 16 15 15 16 17 18 19 20 24 28 31 32 34 36 37 38 38 38 39 40 40 39 38 38 39
17 17 16 15 13 13 13 12 13 14 15 14 15 15 15 15 15 16 17 18 20 21 21 22 22 22 23 23 23 23 22 22 21 20 20 20 21 20 19 19 19 18 18 18 18 18 19 19 20 20 21 21 22 22 21 19 17 16 15 15 15 15 15 15 16 17 18 19 21 24 28 31 34 36 37 37 37 37 38 39 39 39 39 39 40
16 16 16 14 13 12 12 12 13 14 14 14 14 15 15 15 15 16 17 19 20 21 22 22 23 22 23 23 23 23 23 22 22 21 20 20 20 20 20 19 19 19 18 18 18 18 18 19 19 20 20 20 21 22 22 20 18 16 15 15 15 16 15 15 16 17 18 19 20 21 25 29 33 35 36 36 36 35 36 38 39 39 39 40 40
16 15 15 15 14 13 12 12 13 14 14 14 14 15 15 16 16 17 18 19 20 21 22 22 23 23 23 23 24 23 24 23 22 22 21 21 20 20 19 19 19 19 19 18 18 18 18 19 19 19 19 19 20 22 22 21 19 17 15 15 15 15 16 16 16 17 18 19 20 20 22 26 30 33 34 35 35 35 34 36 37 38 39 40 40
15 15 15 15 14 14 13 13 13 14 15 15 15 16 16 17 17 18 19 20 21 22 22 22 23 23 22 23 23 23 23 23 22 21 21 21 21 20 20 19 19 19 19 19 19 18 18 19 19 19 19 19 20 21 22 22 20 19 17 15 14 15 16 16 16 17 18 18 19 20 21 22 26 30 33 34 35 35 34 34 35 37 38 40 40
15 15 15 15 15 14 14 14 14 15 15 16 16 16 17 17 18 19 20 21 22 22 22 22 22 22 21 21 22 22 22 22 22 21 21 21 21 21 21 20 20 19 19 20 20 19 19 19 20 20 19 19 19 20 21 22 21 20 18 16 15 15 16 16 16 17 17 18 19 19 20 21 22 26 30 33 34 35 34 33 33 35 36 38 39
15 15 15 15 15 14 14 14 15 15 16 16 16 17 18 18 19 20 21 21 22 22 22 22 22 21 21 21 21 21 21 22 21 21 20 20 20 21 21 21 20 20 19 20 20 20 19 19 19 20 20 20 19 20 21 21 21 20 19 18 16 15 15 16 16 16 17 18 18 19 19 20 21 23 26 30 32 34 35 34 33 33 35 37 38
15 15 15 15 15 15 15 14 15 16 16 16 17 17 18 19 19 20 21 21 22 22 22 22 22 21 21 21 21 21 21 21 21 20 20 19 19 20 22 22 21 20 20 20 20 20 20 20 19 20 20 20 20 20 21 22 21 21 20 18 17 15 15 16 16 16 17 18 18 19 19 19 20 20 22 25 29 32 34 34 33 33 34 36 37
15 15 15 15 16 16 15 15 15 16 16 16 17 18 18 19 19 20 21 21 22 22 22 22 21 21 21 21 21 21 20 20 20 20 20 19 19 20 21 22 22 21 21 21 21 21 21 21 20 19 20 20 20 20 21 22 22 22 21 19 16 15 15 15 16 16 17 17 18 19 19 20 20 20 20 22 25 28 31 33 33 32 33 34 36
16 15 15 16 16 16 16 15 16 16 17 17 18 18 18 19 20 21 21 21 22 22 22 22 21 21 21 20 20 20 20 19 19 20 19 19 19 19 20 22 23 22 22 22 22 22 22 21 21 20 20 19 19 20 22 23 23 23 22 19 16 15 14 14 15 16 17 17 17 18 19 20 20 21 21 21 23 25 28 31 32 32 32 32 35
16 16 16 16 17 17 16 16 16 17 17 18 18 19 19 20 20 21 21 22 22 22 22 21 21 20 20 20 20 20 20 19 19 19 19 19 19 19 19 21 22 22 22 22 22 23 22 22 22 22 21 20 20 20 22 23 24 24 22 19 16 14 13 13 14 16 16 17 17 18 19 20 21 21 22 22 23 24 26 29 31 32 32 32 33
17 17 17 17 17 17 17 17 17 18 18 19 19 19 20 20 21 21 21 22 22 22 21 21 20 19 19 19 20 20 20 19 19 19 19 19 19 19 19 19 21 22 22 22 22 23 23 23 23 22 22 21 20 21 22 23 24 24 23 19 16 14 12 12 13 14 15 16 17 17 19 20 21 22 22 22 23 24 25 27 30 32 32 32 32
17 17 17 17 17 17 17 17 18 18 19 19 20 20 20 21 21 21 21 21 21 21 20 20 19 19 19 19 20 20 20 19 19 19 19 19 19 20 19 19 19 21 22 21 21 22 22 23 23 22 22 21 20 20 22 23 24 24 23 19 16 14 12 11 12 13 14 15 17 17 18 20 21 22 22 23 23 23 24 25 28 30 32 32 32
17 17 17 17 17 17 17 18 18 19 19 20 20 20 21 21 21 21 21 21 21 20 19 19 19 18 18 19 20 20 20 19 19 19 19 19 20 20 20 20 19 20 21 21 21 22 22 22 23 22 22 21 20 20 21 23 24 24 23 20 16 14 12 11 11 12 13 15 16 17 17 18 20 21 22 23 24 24 23 24 25 27 29 31 32
17 17 17 16 16 17 17 17 18 19 19 20 20 21 21 21 21 20 20 20 20 19 18 18 18 18 18 18 19 20 20 20 19 19 19 19 20 20 21 21 20 20 20 21 21 22 22 22 23 23 22 21 20 20 21 22 23 24 23 21 17 15 13 11 10 11 12 14 15 16 17 17 19 21 22 23 24 24 24 24 24 25 26 28 30
16 16 16 16 15 16 16 17 18 19 19 20 20 21 21 20 20 20 19 19 19 18 17 18 18 18 18 19 19 20 20 19 19 19 19 19 20 20 21 21 21 21 21 21 22 22 22 22 23 23 23 21 20 19 20 21 23 24 24 22 18 15 13 11 10 10 11 13 14 15 16 17 18 20 22 23 24 24 25 25 25 25 25 27 28
16 16 15 15 15 15 16 17 18 18 19 20 20 20 20 19 19 19 19 18 17 17 17 17 18 18 19 19 19 20 20 20 19 19 19 20 20 20 21 22 22 22 21 22 22 23 23 23 23 23 23 22 20 19 19 20 22 23 24 23 20 16 14 12 11 10 10 11 14 15 15 16 18 19 21 23 23 24 25 25 25 25 25 25 27
15 15 15 14 14 15 16 17 17 18 19 19 19 18 18 18 18 18 17 17 17 16 16 17 18 19 19 19 20 20 20 20 20 20 20 20 21 21 21 21 22 22 21 22 22 23 23 23 23 23 23 22 20 20 19 19 21 22 23 23 22 18 15 13 11 10 10 10 12 14 15 16 17 19 21 23 23 24 25 25 25 25 25 25 25
15 15 14 14 14 14 15 15 16 17 17 17 17 16 16 16 16 16 16 16 16 16 16 17 18 19 19 20 20 20 21 21 21 21 20 19 20 20 20 20 21 21 21 21 22 23 23 22 23 23 23 22 21 20 19 19 20 20 22 23 23 20 16 13 12 10 9 9 11 13 14 15 16 18 20 22 23 24 24 25 25 25 25 25 25
14 14 14 14 14 14 14 14 15 15 15 15 15 15 15 14 14 14 14 15 15 16 16 18 18 19 20 20 21 21 21 22 22 22 21 20 20 20 20 20 20 20 20 21 21 22 22 22 22 23 23 22 21 20 20 20 20 21 22 24 24 21 17 14 13 12 10 9 10 12 14 15 16 17 19 21 23 24 25 25 25 26 26 26 26
14 14 14 13 13 13 13 13 13 13 13 13 13 13 13 13 13 13 14 14 15 16 17 18 19 20 20 21 21 21 22 22 22 23 23 23 23 22 21 21 20 20 20 20 21 22 22 22 23 23 23 23 22 20 20 20 21 21 22 23 24 22 19 15 13 13 12 11 10 11 13 15 16 17 18 20 22 24 25 25 26 26 26 26 26
14 14 13 13 13 13 13 13 13 13 12 12 13 13 13 13 13 13 14 15 16 17 18 19 20 20 21 21 22 22 22 22 22 23 24 24 24 24 23 21 21 20 20 20 21 22 22 23 23 24 24 23 22 20 20 19 20 21 22 22 22 21 19 16 14 13 13 12 12 11 12 14 16 17 18 19 21 23 25 26 26 26 26 26 26
14 13 13 13 13 12 13 13 13 12 12 12 12 12 12 12 13 13 14 16 17 18 19 20 20 20 21 22 22 22 21 21 22 22 23 23 23 23 23 22 22 21 21 21 21 21 22 22 23 24 24 23 22 20 19 19 19 19 20 21 22 21 19 17 16 14 14 13 13 13 13 13 15 17 18 19 20 22 24 26 27 26 26 26 26
14 13 13 13 12 12 12 12 12 12 11 11 12 12 12 13 13 14 15 17 18 19 20 20 20 20 21 21 22 22 21 21 21 22 23 23 23 23 23 23 22 22 21 21 21 21 20 20 21 22 23 23 22 21 20 19 19 18 19 20 22 22 20 18 17 17 16 14 14 13 13 14 15 17 18 19 20 21 23 25 27 27 27 26 26
13 13 13 13 12 12 12 11 11 12 11 11 11 11 12 13 14 15 16 17 18 19 20 20 21 21 20 20 21 21 22 22 22 23 24 24 24 24 24 23 22 21 21 20 19 19 18 18 19 20 21 22 22 21 20 19 19 19 19 20 21 22 20 18 18 18 17 16 15 14 14 15 16 17 18 19 20 21 22 24 26 27 27 27 26
14 13 13 12 12 12 11 11 11 11 11 11 11 11 12 13 14 15 16 17 18 19 19 20 20 20 20 20 21 21 22 22 23 23 24 24 24 24 24 23 22 21 21 19 18 17 17 17 18 19 20 21 21 21 20 19 19 19 19 20 22 22 20 18 17 18 18 18 17 17 16 16 17 18 18 19 20 20 21 22 25 26 27 27 26
14 13 13 12 12 12 11 11 11 11 11 10 11 11 12 13 14 15 16 17 18 19 19 20 20 20 20 20 21 22 23 23 23 23 23 24 24 24 23 23 22 21 20 19 17 17 17 17 17 18 19 19 20 21 20 19 19 19 19 20 21 23 22 19 17 17 18 18 17 18 18 17 16 16 17 18 18 19 20 20 22 24 26 27 26
14 14 13 13 12 12 11 11 11 11 10 10 10 11 12 13 13 14 15 17 18 19 19 19 20 20 21 21 21 22 23 24 24 23 23 23 23 23 23 22 21 20 19 17 16 16 17 17 17 18 17 18 19 20 20 20 20 19 19 19 20 22 23 22 19 18 18 18 17 17 16 14 12 12 13 14 16 17 18 19 20 21 24 26 26
14 14 13 13 12 12 11 11 11 10 10 10 10 10 11 12 12 14 15 17 18 18 18 19 19 20 20 21 21 22 22 23 24 23 22 22 22 22 22 21 21 20 18 16 15 16 17 17 18 18 17 16 17 19 19 20 20 20 19 19 20 21 23 23 21 19 18 17 17 15 13 11 8 7 8 10 12 14 16 17 18 19 21 23 25
14 14 14 13 13 12 11 11 10 10 9 9 9 10 10 11 12 13 15 15 16 17 18 19 19 20 20 21 21 22 22 22 22 22 21 21 22 21 21 21 20 20 18 15 14 14 15 16 17 18 17 16 17 18 19 19 20 21 20 19 19 20 21 22 21 19 18 17 16 13 11 9 6 3 5 7 9 12 14 16 18 18 19 20 22
14 14 14 14 13 13 12 11 11 10 10 9 9 9 10 10 12 13 14 14 15 16 17 18 19 20 21 21 22 22 21 21 21 21 20 21 21 21 20 20 20 20 18 16 14 13 14 15 17 18 17 17 17 18 19 19 20 20 20 19 19 19 20 21 20 18 17 16 15 12 9 7 5 3 4 5 7 10 13 15 17 18 18 19 20
14 14 14 14 13 13 12 12 11 10 10 9 9 9 10 11 12 14 14 15 16 16 16 17 18 19 20 20 21 21 21 20 20 20 20 20 20 20 20 20 20 19 18 16 14 13 14 15 16 17 18 18 18 19 20 20 19 19 20 20 19 19 19 20 21 19 16 15 15 13 9 7 5 4 3 4 6 9 12 14 17 18 19 20 20
14 14 14 14 13 13 12 11 11 10 10 10 10 10 11 12 13 14 15 16 16 17 17 18 18 19 19 19 19 20 20 20 20 20 19 19 20 20 20 20 19 18 17 16 14 12 13 14 16 17 17 17 18 18 19 19 19 19 19 20 20 19 19 19 20 20 17 15 14 13 11 8 6 5 5 4 5 7 10 13 16 18 19 20 21
14 14 14 14 13 12 12 11 11 10 10 10 10 11 12 13 14 15 16 17 17 18 18 19 20 20 20 19 19 19 19 19 19 19 19 19 19 20 20 20 19 18 17 15 13 12 12 13 14 15 16 16 17 18 18 18 18 18 18 19 20 19 19 19 19 20 19 16 13 12 11 9 7 5 5 5 6 6 7 10 13 17 19 20 21
14 13 13 13 12 11 11 10 10 10 10 10 10 11 13 14 15 16 17 17 18 18 19 20 21 21 20 19 19 18 18 18 17 17 17 18 18 19 20 20 19 19 17 16 14 13 13 13 13 14 14 15 15 16 16 17 17 17 18 19 19 20 19 19 19 19 19 18 15 13 11 10 8 7 6 6 7 7 7 7 10 13 17 19 21
13 13 12 12 11 11 10 10 10 10 10 10 11 12 13 14 15 16 17 17 18 19 20 21 21 21 20 19 18 17 17 17 17 16 16 16 17 18 19 19 19 19 18 17 16 15 14 14 14 14 14 14 14 14 15 15 16 16 17 18 19 20 20 19 19 18 18 18 17 14 12 10 9 8 7 7 7 7 8 8 9 10 13 16 19
12 12 12 11 11 11 10 10 10 10 11 11 12 13 13 14 15 16 17 18 18 19 20 20 21 21 20 19 18 17 17 17 17 16 16 15 15 16 17 18 18 18 17 17 17 16 16 15 15 14 14 14 13 14 14 14 15 15 16 17 17 18 19 20 19 18 18 18 17 15 13 11 9 8 7 7 7 7 7 8 9 10 11 12 15
12 11 11 11 11 11 11 11 11 11 12 12 13 13 14 15 16 17 18 19 20 20 20 20 20 20 20 20 19 18 17 17 17 16 16 16 15 15 16 17 18 18 17 17 17 17 17 17 17 16 15 14 13 14 15 15 15 15 15 16 16 17 18 19 20 19 18 18 17 15 14 12 10 8 7 7 8 7 6 7 8 10 11 12 13
11 11 11 11 11 11 11 11 12 12 12 13 14 14 15 16 17 18 19 19 20 20 20 20 20 20 20 20 20 19 18 18 17 17 17 16 16 15 15 16 17 18 17 17 17 17 17 18 18 17 17 15 14 14 15 16 16 16 16 15 16 16 17 18 19 19 19 18 17 16 14 13 12 10 8 6 7 7 7 6 6 8 9 11 11
11 11 11 11 12 12 13 13 13 14 14 15 15 16 17 17 18 18 19 19 20 20 20 20 20 20 20 21 21 21 20 20 20 19 18 18 17 16 17 18 19 19 18 18 17 17 17 17 18 18 18 17 17 16 16 16 17 17 17 16 16 16 16 17 18 19 19 18 18 17 15 13 12 11 9 7 6 6 6 7 6 6 7 8 9
12 12 12 13 13 14 14 15 15 16 16 17 17 18 19 19 20 20 21 21 21 22 22 21 21 21 21 21 21 22 22 22 21 21 20 20 19 18 19 20 21 21 19 18 18 17 17 17 17 17 17 18 18 19 19 18 18 18 17 17 17 17 16 15 16 17 17 17 17 18 17 15 12 11 11 9 7 6 5 6 6 6 6 6 7
14 14 14 14 15 15 15 16 17 17 17 18 19 19 20 21 22 22 23 23 23 23 23 23 23 22 22 22 22 22 22 22 23 23 22 21 21 20 21 21 22 22 21 20 19 18 17 16 16 16 17 17 17 19 20 20 20 20 18 17 17 17 17 16 15 16 16 16 15 16 17 17 15 12 11 11 9 7 6 5 6 6 6 6 6
15 15 16 16 16 17 18 18 19 19 20 20 20 21 22 22 23 23 24 24 24 24 25 25 25 24 24 24 24 24 24 24 24 24 23 23 22 21 21 22 23 22 21 21 20 20 19 18 16 16 17 17 17 18 19 20 21 21 20 19 18 18 18 17 16 16 15 15 14 13 15 17 17 15 12 11 11 9 8 6 5 6 6 6 6
17 17 18 18 19 19 19 20 21 21 21 21 22 22 22 23 23 24 24 24 25 25 26 26 26 26 26 26 26 26 26 26 26 25 25 24 24 23 23 23 23 23 22 21 22 22 22 20 19 18 18 18 18 18 18 19 19 20 20 20 19 18 18 18 18 17 16 14 13 12 12 14 16 16 14 12 11 10 10 8 6 6 6 6 6
19 19 20 20 21 21 22 22 23 23 23 24 24 24 24 24 25 25 26 26 26 26 27 27 27 27 28 28 28 27 27 27 27 27 27 26 26 25 24 24 23 23 22 22 22 23 23 22 21 20 20 20 20 19 19 19 18 18 18 20 20 20 19 19 19 18 17 15 14 13 11 11 13 15 15 14 12 11 11 10 8 6 6 6 6
Wind_Direction
312 312 312 312 315 317 315 313 310 309 313 316 317 317 319 322 326 330 335 338 338 338 339 340 340 340 340 339 338 337 335 331 328 325 322 320 319 318 317 317 316 317 319 321 323 323 323 324 327 330 330 325 314 301 294 290 285 281 277 270 261 257 254 249 244 241 240 239 237 234 231 229 227 227 228 228 226 224 225 225 224 226 229 231 229
310 310 311 311 313 314 311 308 306 307 310 312 313 315 318 322 326 331 335 337 337 339 340 341 342 342 341 339 338 337 335 333 330 328 325 322 319 318 317 316 316 317 319 321 323 325 325 325 328 332 334 330 319 307 299 295 290 285 280 274 264 257 253 251 246 241 238 238 238 236 233 231 229 227 227 228 226 225 224 224 223 223 226 230 230
307 308 309 310 311 310 306 303 303 305 306 308 311 315 318 322 327 331 334 336 337 339 340 341 342 343 342 340 338 337 336 335 334 332 330 326 322 319 318 316 315 317 319 321 323 325 326 326 329 334 336 334 325 312 303 299 294 288 283 278 268 258 253 251 248 243 238 236 235 235 234 233 231 228 227 227 226 224 223 223 223 222 222 226 228
305 306 308 309 309 307 303 301 301 301 303 307 312 315 319 323 326 330 333 336 337 338 340 341 342 342 342 340 338 336 335 335 336 336 333 330 327 323 319 316 315 316 317 318 321 324 326 327 329 333 336 337 332 319 308 301 296 291 285 280 273 261 254 250 248 245 239 235 233 232 232 233 233 230 227 226 225 224 222 221 221 220 219 221 223
303 305 308 308 307 305 302 298 297 299 303 308 313 317 320 322 325 330 334 336 338 338 340 341 342 342 341 339 337 335 334 335 337 337 336 333 331 328 323 318 316 315 315 317 320 323 327 327 327 331 336 339 338 329 316 304 298 292 286 280 274 265 256 251 248 245 241 235 232 231 230 231 233 231 229 226 225 224 221 219 219 218 217 218 218
303 305 307 307 305 302 298 295 295 300 306 311 315 319 321 321 324 330 334 336 337 338 340 341 342 342 340 338 337 334 333 333 335 337 336 335 334 331 328 324 320 318 318 318 320 323 325 326 327 330 335 340 342 337 326 312 302 297 289 281 276 268 259 252 248 245 242 237 233 230 229 229 231 232 230 228 226 225 223 220 218 218 217 217 215
302 303 305 304 301 299 296 294 296 302 308 313 317 320 320 321 325 330 333 334 336 337 338 340 341 341 340 338 336 334 332 332 333 335 336 336 336 335 332 329 325 324 323 322 322 323 324 324 326 329 334 339 343 342 334 322 310 301 292 283 275 269 261 253 248 245 242 239 235 231 229 228 229 230 231 230 228 226 225 222 221 219 218 217 216
301 301 303 303 299 296 295 295 298 304 309 313 317 318 318 321 325 328 329 331 333 335 336 337 338 339 339 338 337 334 332 331 330 331 334 335 337 337 335 333 329 327 327 325 324 324 323 324 325 328 332 337 341 342 339 331 319 306 294 283 273 266 261 253 248 244 242 240 237 233 230 228 227 228 230 231 230 228 226 225 223 222 219 217 218
302 302 304 303 299 294 292 294 298 304 308 311 314 316 318 321 323 324 325 328 330 331 333 334 335 336 337 338 338 335 332 331 329 329 331 333 337 339 338 335 333 331 330 328 328 327 325 324 325 327 331 335 338 340 340 337 328 314 299 285 275 267 261 255 248 244 241 240 238 235 231 229 227 227 228 230 231 230 227 225 224 224 222 219 219
303 302 303 302 298 293 290 293 299 304 307 310 313 315 318 319 319 320 322 324 326 328 330 331 331 333 335 337 337 336 333 332 330 328 329 331 334 337 339 338 336 334 333 332 331 329 327 326 325 326 329 332 335 339 340 338 332 322 308 292 281 271 264 257 250 245 242 239 238 236 233 230 228 227 226 228 230 231 229 226 225 225 223 221 220
302 301 300 300 298 293 291 293 298 303 305 308 312 315 316 316 317 318 319 321 323 325 327 328 328 331 334 334 334 334 333 331 329 328 328 329 331 334 337 340 340 339 337 335 334 333 330 328 326 326 328 330 334 338 340 338 334 326 316 303 287 274 264 258 252 248 244 241 240 238 235 232 229 227 226 226 228 230 230 228 226 225 225 223 220
302 299 297 297 295 291 290 292 296 300 303 308 312 313 314 315 316 317 318 319 321 323 324 325 326 329 331 330 330 331 331 331 330 330 328 328 330 332 335 338 341 341 339 337 336 335 333 330 328 327 329 330 333 337 339 338 334 327 320 309 293 277 267 260 254 249 247 244 241 239 237 235 231 227 226 226 227 228 230 228 226 225 225 224 222
301 296 294 294 294 291 289 291 295 299 303 307 311 312 313 315 316 316 317 318 320 322 322 323 325 327 328 326 327 329 330 330 331 330 329 329 330 330 332 336 339 340 339 338 337 335 334 333 331 330 330 330 333 336 338 338 335 329 322 313 300 284 271 262 255 249 245 242 241 238 237 235 233 229 226 226 226 227 229 228 226 225 224 224 222
302 296 293 293 294 293 291 292 295 298 302 307 309 310 313 315 316 316 317 318 320 321 322 324 325 326 325 325 326 327 328 329 329 329 330 330 330 330 330 334 337 338 338 338 337 336 335 335 334 332 331 331 333 336 338 339 337 332 325 315 304 291 275 262 255 249 244 241 238 237 236 235 233 230 228 226 226 226 227 228 227 225 224 223 222
306 298 294 292 292 293 292 291 294 298 302 307 308 310 313 315 316 317 318 320 322 322 323 325 326 325 324 325 325 325 326 326 326 328 330 330 331 330 330 332 335 337 338 337 337 337 337 336 336 334 333 333 334 336 339 340 340 336 330 320 309 295 281 267 256 250 246 242 238 235 234 234 232 230 228 227 225 225 226 227 227 225 223 222 222
309 301 294 290 289 289 290 291 294 298 303 306 308 309 312 314 315 317 320 321 323 323 325 327 326 324 323 324 324 324 324 324 324 326 328 329 330 331 331 331 333 336 337 336 337 337 337 336 336 336 336 336 336 336 339 342 342 340 335 327 316 302 288 273 259 250 246 243 239 235 232 232 231 230 229 227 225 223 223 225 226 225 223 221 221
312 304 295 290 288 289 291 292 295 298 302 305 307 309 310 312 314 317 320 322 323 325 326 327 326 324 323 324 325 325 324 323 323 324 326 328 329 331 332 331 332 334 336 336 336 337 336 337 337 337 338 338 337 338 340 343 345 344 340 333 323 311 294 278 264 253 246 242 239 236 232 230 229 229 229 228 227 224 222 223 225 225 223 221 220
314 307 298 292 291 291 293 294 296 298 302 304 305 307 309 311 313 316 318 321 323 325 326 327 326 323 323 324 326 327 326 325 324 324 325 328 329 330 331 331 331 332 334 335 336 336 336 337 337 338 338 338 338 338 340 344 347 347 344 338 331 320 304 285 269 257 248 243 239 236 232 229 228 228 228 228 228 226 223 222 223 224 224 222 219
314 309 301 295 292 293 294 296 297 298 301 302 304 307 308 310 312 314 317 320 323 324 325 326 325 323 324 326 329 330 330 328 326 326 327 328 330 330 331 332 331 331 333 334 335 336 336 336 336 338 339 338 337 337 340 344 347 348 346 343 336 326 313 296 279 263 251 244 239 235 232 230 228 228 227 227 228 227 226 224 223 223 224 223 220
314 311 305 299 295 296 297 298 298 299 301 303 304 306 308 310 311 312 316 320 322 324 325 326 325 325 325 328 331 332 332 330 329 329 329 330 331 331 331 332 333 333 333 334 335 336 336 336 336 337 339 339 338 338 341 344 347 348 349 346 339 330 320 306 290 273 257 247 241 237 233 230 228 227 226 226 226 226 227 227 225 224 224 224 221
314 313 310 304 300 299 300 300 300 301 302 304 305 306 308 310 310 312 316 319 322 324 326 326 326 326 327 329 332 334 334 332 332 332 332 332 331 331 331 333 334 336 336 336 336 337 337 337 336 337 339 341 340 339 340 342 345 349 350 347 339 332 326 316 302 283 265 252 245 239 235 231 228 226 225 225 224 224 225 226 225 225 224 224 223
314 314 313 310 306 303 302 302 302 303 304 305 306 308 309 309 310 313 316 319 322 324 325 325 326 327 328 329 332 334 334 333 334 334 334 333 331 331 332 332 334 336 338 337 336 337 339 338 337 337 339 341 342 339 338 341 344 348 350 348 342 335 331 325 314 298 276 258 248 242 237 232 228 226 224 224 224 224 225 225 225 224 223 223 224
314 316 316 315 311 307 304 303 303 305 306 306 308 310 310 310 312 315 318 320 323 324 324 325 327 328 328 329 331 333 333 334 334 335 335 334 332 333 333 332 333 335 336 336 335 337 339 340 339 339 339 340 342 340 339 342 345 346 348 349 346 339 334 330 322 309 290 267 252 245 239 234 230 227 224 223 223 223 225 226 225 225 224 223 223
316 319 320 318 314 310 307 306 307 308 308 309 310 311 312 312 315 318 320 323 324 324 324 326 327 327 327 327 328 330 332 334 335 336 335 334 333 332 331 331 332 333 333 333 333 334 338 340 341 340 339 341 343 341 341 344 345 345 347 349 348 343 335 330 324 314 299 279 260 250 244 238 233 229 225 223 221 222 224 225 225 225 225 223 223
320 321 321 319 316 314 312 311 312 312 312 313 314 314 315 317 319 322 323 323 323 324 326 327 326 324 325 325 326 327 329 331 333 334 334 333 333 332 330 331 331 331 331 331 331 332 335 339 341 341 341 343 344 343 344 345 344 345 349 350 348 344 336 328 325 319 308 291 270 255 247 241 236 232 228 224 222 221 222 223 224 225 225 223 222
322 322 320 319 319 318 317 316 316 316 317 318 318 319 320 322 324 325 324 323 325 329 330 329 326 324 324 324 324 324 325 328 331 331 332 333 334 334 333 333 333 331 330 331 331 332 333 336 340 342 342 343 344 345 346 344 342 346 352 351 346 343 338 331 326 323 317 303 284 264 251 244 239 234 231 227 223 221 221 221 222 223 224 223 221
321 320 319 320 321 321 320 320 321 322 323 324 323 323 324 326 327 326 325 328 332 335 333 330 327 326 325 324 323 322 323 326 328 329 332 334 335 336 336 335 334 332 332 333 333 332 332 334 339 342 343 343 345 347 347 344 343 348 352 350 344 341 339 335 329 322 316 308 294 275 258 248 242 238 233 229 225 223 221 221 221 222 222 222 221
319 318 319 321 323 323 322 323 323 325 326 327 326 326 328 330 329 328 330 334 337 335 332 329 327 326 324 323 322 322 323 324 325 328 331 332 332 334 335 334 334 334 335 336 336 335 333 335 338 341 342 343 345 347 348 345 345 348 349 346 343 342 340 336 331 324 315 306 297 285 269 255 246 240 236 231 227 224 222 221 221 221 221 221 221
316 318 320 322 322 322 323 323 323 325 327 328 328 328 329 330 330 332 334 336 334 331 329 327 326 324 322 321 321 321 322 323 324 326 328 328 329 331 334 335 335 336 337 339 339 338 336 336 337 339 340 341 342 345 347 347 347 348 346 343 344 346 342 336 332 328 319 309 300 291 281 267 253 244 238 233 229 225 223 223 223 222 221 221 220
317 319 321 321 320 321 322 323 323 324 327 328 328 329 329 330 333 335 335 334 331 329 328 327 326 324 322 319 318 319 321 324 325 326 327 328 330 333 335 337 337 337 339 341 340 339 336 335 335 336 337 339 341 343 346 347 348 348 346 344 346 348 345 337 332 330 325 317 309 297 287 276 263 251 241 235 231 227 223 222 223 222 222 221 220
318 319 320 320 319 319 321 323 323 323 325 326 326 327 328 331 334 334 332 330 329 328 328 328 326 324 322 320 319 321 325 327 328 328 329 330 331 333 335 337 337 339 340 341 341 339 336 335 335 335 336 338 340 342 344 346 347 347 347 347 348 350 347 339 332 330 328 323 317 307 294 281 269 258 247 238 232 228 224 222 221 222 222 222 221
318 318 318 318 317 318 321 322 321 320 320 321 323 325 329 332 332 330 328 328 328 328 328 327 326 324 323 323 324 326 328 329 329 330 330 331 332 333 334 336 338 340 341 342 342 341 339 337 338 338 338 339 340 340 342 345 347 349 350 348 349 351 351 345 338 335 332 326 319 311 302 288 273 261 251 241 233 228 226 223 220 220 221 222 222
317 317 317 316 315 316 318 318 316 315 317 319 321 324 329 332 331 329 328 328 328 329 329 328 327 326 327 328 328 328 329 329 330 331 331 331 331 332 334 336 337 340 342 343 343 344 343 341 341 341 340 340 339 339 341 344 347 349 351 350 349 351 352 351 347 342 337 330 322 316 308 296 279 261 249 241 234 228 226 225 221 219 220 221 221
317 316 314 314 313 313 313 313 313 314 317 319 321 324 328 330 330 329 328 328 328 328 329 329 329 329 330 331 330 328 328 329 330 331 330 330 330 331 333 335 337 340 342 342 343 346 346 345 343 342 342 341 340 340 341 343 346 349 352 352 351 352 353 352 351 349 344 336 330 325 319 308 288 262 245 238 233 227 224 224 223 220 219 220 220
314 312 309 307 307 307 307 309 311 312 314 316 318 320 323 324 325 326 326 327 328 328 328 330 330 329 330 329 327 327 327 327 328 329 328 328 329 330 332 334 336 339 341 341 340 343 347 347 345 344 343 342 342 342 342 344 345 348 352 354 353 354 355 354 352 353 350 344 339 337 334 324 301 262 235 230 230 227 222 222 222 220 219 219 219
310 307 304 303 304 306 307 306 305 305 305 308 311 314 317 319 320 323 324 325 325 326 327 328 329 329 329 327 326 326 327 327 327 328 328 328 329 330 332 334 335 338 340 340 338 340 343 345 345 345 343 342 342 343 344 345 344 346 350 354 354 355 358 358 355 354 353 351 348 346 344 340 324 266 221 216 221 223 222 221 221 220 219 219 219
308 306 305 304 306 308 309 307 305 304 304 305 306 309 313 314 316 320 322 322 323 325 326 327 328 328 328 327 325 326 326 327 328 329 329 329 329 330 332 333 335 337 340 339 337 338 340 341 343 345 344 341 341 342 345 346 345 344 347 353 356 357 359 1 0 357 354 354 354 353 351 347 338 300 239 222 221 221 220 219 221 220 219 218 219
310 309 309 309 309 310 310 309 308 306 304 304 305 306 310 314 317 321 323 323 324 326 327 327 327 327 326 325 324 324 325 327 328 329 330 331 331 331 332 334 335 337 339 339 336 335 337 341 343 344 343 341 341 343 345 345 344 343 346 351 356 358 359 1 3 2 358 355 355 357 358 353 341 322 288 254 240 233 225 220 220 220 218 218 219
314 314 314 313 311 310 311 310 310 308 306 305 307 309 312 316 319 321 323 324 325 326 327 327 327 326 325 324 324 324 326 328 330 331 333 334 333 332 333 334 335 336 338 339 336 331 331 337 342 344 342 339 341 345 345 343 341 343 346 351 356 358 358 360 2 4 4 360 354 355 359 359 345 324 305 282 262 249 239 230 225 223 220 219 219
318 317 317 316 314 314 313 313 313 312 311 310 311 312 313 316 318 320 321 323 324 325 326 326 326 327 327 327 326 326 327 328 330 332 334 335 335 334 334 335 336 336 336 338 338 332 326 326 333 339 338 336 339 344 346 343 340 342 347 351 355 358 358 358 359 3 6 5 359 353 355 0 356 334 309 290 273 261 252 241 234 230 226 222 221
320 319 318 317 316 316 316 315 314 314 312 311 310 310 312 313 315 317 318 320 322 324 324 325 325 326 326 326 326 325 325 325 327 330 333 334 335 335 336 337 338 337 337 338 338 335 330 324 323 328 332 333 335 340 344 344 343 343 346 350 355 357 357 356 356 359 2 6 4 357 351 354 359 352 329 302 283 270 262 253 243 237 233 228 224
322 322 321 320 321 322 321 319 317 313 310 307 305 305 306 308 309 312 314 317 319 320 321 321 322 322 322 323 323 322 321 321 323 325 328 330 332 334 336 338 338 338 338 338 337 335 334 331 327 327 329 330 330 332 338 344 346 345 345 348 353 356 356 355 355 355 357 1 5 2 354 348 351 352 343 325 303 281 268 260 252 245 239 234 230
324 324 324 325 326 326 324 321 317 313 309 306 304 304 305 306 308 310 312 314 315 316 317 318 319 318 318 319 320 319 317 317 319 320 321 323 326 329 332 336 338 338 339 339 337 335 333 332 331 330 330 330 326 323 327 336 343 344 344 347 351 354 354 353 353 352 351 354 359 2 359 351 348 347 342 333 323 306 282 265 258 251 245 240 234
326 326 327 327 327 327 327 325 321 316 313 311 310 310 310 310 311 311 312 311 312 314 315 316 316 314 314 315 316 316 315 314 315 315 315 315 318 323 327 331 334 338 340 339 337 335 333 331 330 329 330 329 325 319 318 322 329 334 339 342 346 350 351 349 348 348 347 347 351 357 359 355 349 345 341 332 327 324 312 287 267 257 252 247 241
327 328 328 327 325 325 324 321 318 317 316 315 314 313 311 310 310 309 309 309 310 311 312 313 312 311 310 311 313 313 312 311 311 310 310 310 312 316 319 322 326 332 338 340 336 332 330 329 329 327 327 326 323 318 315 315 317 322 327 333 337 341 344 345 343 342 342 342 343 347 354 356 351 346 342 335 328 326 324 312 289 268 258 254 250
327 326 325 323 322 321 321 320 320 320 319 317 316 314 312 312 311 311 310 310 310 310 310 311 311 310 310 310 311 312 312 311 310 308 307 308 309 309 311 313 316 321 328 333 334 332 328 326 325 325 326 327 327 324 320 316 314 315 319 323 326 329 333 337 338 337 337 337 337 338 343 350 351 348 343 339 334 329 325 319 308 290 274 265 258
325 323 323 323 322 321 321 320 319 317 316 316 316 315 315 315 315 314 314 313 312 311 311 311 311 311 310 310 310 310 310 309 307 306 305 306 307 307 306 307 310 313 317 322 327 328 326 322 321 322 325 328 330 329 326 324 320 317 315 316 318 320 324 329 333 333 331 330 331 331 333 338 344 347 345 343 341 336 328 321 315 305 294 282 271
322 321 321 321 320 319 318 317 315 315 315 316 316 316 316 315 315 314 313 313 311 310 311 311 310 310 310 309 309 309 308 307 307 306 305 305 305 305 305 306 308 310 312 313 316 317 317 317 317 319 322 327 329 328 327 327 325 323 319 315 313 314 317 321 326 328 326 325 324 325 326 330 334 337 340 343 344 343 337 327 318 310 302 292 280
320 320 319 319 319 319 319 318 317 317 317 316 316 316 316 315 314 313 312 311 310 309 309 310 310 309 310 311 311 311 310 309 307 306 305 304 302 301 301 301 302 303 304 304 305 306 307 309 312 315 318 321 323 322 321 322 323 324 322 317 312 309 310 314 319 322 322 322 322 319 319 322 326 329 332 334 337 341 341 334 322 311 304 296 285
320 320 320 321 321 321 320 318 317 317 317 317 316 315 314 313 313 312 311 310 310 310 309 310 311 312 313 314 314 313 311 309 307 305 304 303 301 299 297 298 299 299 298 298 299 300 301 303 306 309 312 315 315 314 312 311 313 317 319 318 314 309 306 306 310 313 315 318 320 318 315 314 317 321 323 325 328 332 334 333 324 310 300 293 283
321 321 321 321 321 320 320 320 320 320 319 318 316 315 315 314 313 313 313 313 312 310 309 308 310 311 312 312 311 311 310 308 306 305 304 303 302 300 298 297 297 297 295 293 293 295 296 298 300 302 305 308 310 310 309 306 305 308 311 312 312 310 307 303 301 303 305 308 311 314 314 312 311 313 315 317 318 321 323 324 323 313 299 291 285
Height
5869 5868 5866 5864 5863 5861 5860 5859 5858 5857 5856 5855 5854 5853 5852 5851 5849 5847 5846 5844 5841 5839 5837 5835 5832 5830 5828 5825 5823 5821 5819 5817 5815 5813 5811 5809 5807 5805 5803 5800 5798 5796 5794 5791 5789 5787 5784 5782 5780 5777 5775 5772 5770 5768 5767 5765 5764 5763 5763 5764 5764 5764 5764 5765 5766 5768 5771 5773 5775 5778 5780 5782 5784 5786 5787 5790 5793 5796 5798 5800 5802 5804 5805 5806 5808
5868 5866 5865 5863 5861 5860 5858 5857 5857 5856 5855 5854 5853 5852 5851 5849 5848 5846 5844 5842 5840 5838 5835 5833 5831 5828 5826 5824 5822 5819 5817 5815 5813 5811 5809 5807 5805 5803 5801 5799 5796 5794 5791 5789 5787 5785 5782 5780 5778 5775 5772 5770 5767 5765 5764 5763 5761 5760 5760 5760 5761 5761 5761 5761 5762 5764 5766 5769 5771 5774 5776 5778 5780 5781 5782 5785 5787 5790 5793 5795 5798 5800 5801 5802 5804
5866 5864 5863 5861 5860 5859 5857 5856 5856 5855 5854 5853 5852 5851 5849 5848 5846 5845 5843 5841 5839 5836 5834 5832 5829 5827 5825 5822 5820 5818 5816 5814 5811 5809 5807 5805 5803 5801 5799 5797 5794 5792 5789 5787 5785 5782 5780 5778 5775 5773 5770 5768 5765 5763 5761 5760 5759 5758 5757 5757 5757 5757 5757 5758 5758 5760 5762 5764 5766 5769 5771 5773 5774 5776 5778 5780 5782 5785 5788 5791 5793 5796 5798 5799 5801
5864 5863 5861 5860 5859 5858 5856 5855 5854 5854 5853 5852 5850 5849 5848 5846 5845 5843 5841 5839 5837 5835 5833 5830 5828 5825 5823 5821 5819 5816 5814 5812 5810 5808 5805 5803 5801 5799 5797 5795 5792 5790 5787 5785 5783 5780 5778 5776 5773 5771 5768 5766 5763 5760 5759 5757 5756 5755 5754 5754 5754 5754 5754 5755 5755 5757 5758 5760 5761 5764 5766 5767 5768 5770 5773 5775 5777 5780 5783 5786 5789 5793 5795 5796 5798
5863 5861 5860 5858 5857 5856 5855 5854 5853 5853 5852 5850 5849 5847 5846 5845 5843 5842 5840 5838 5836 5834 5831 5829 5826 5824 5822 5820 5817 5815 5813 5810 5808 5806 5804 5801 5799 5797 5795 5793 5790 5788 5786 5783 5781 5779 5776 5774 5771 5769 5767 5764 5761 5759 5757 5755 5753 5752 5752 5751 5751 5751 5751 5752 5753 5753 5754 5755 5757 5758 5760 5762 5763 5765 5767 5770 5773 5776 5779 5782 5785 5789 5792 5793 5795
5861 5860 5858 5857 5856 5855 5854 5853 5852 5851 5850 5849 5847 5846 5844 5843 5842 5840 5838 5836 5834 5832 5830 5827 5825 5823 5820 5818 5816 5813 5811 5809 5806 5804 5802 5799 5797 5795 5793 5791 5788 5786 5784 5782 5779 5777 5774 5772 5769 5767 5765 5762 5760 5757 5755 5753 5751 5750 5750 5749 5749 5749 5749 5749 5750 5750 5751 5752 5752 5754 5755 5757 5759 5760 5763 5766 5769 5772 5775 5778 5781 5785 5788 5790 5792
5860 5858 5857 5856 5855 5853 5853 5852 5851 5849 5848 5847 5846 5844 5843 5842 5840 5838 5836 5834 5832 5830 5828 5826 5824 5821 5819 5817 5815 5812 5809 5807 5805 5802 5800 5798 5795 5793 5791 5788 5786 5784 5782 5780 5777 5775 5772 5770 5767 5765 5763 5761 5759 5756 5753 5751 5749 5748 5747 5747 5746 5746 5746 5746 5747 5747 5748 5748 5749 5750 5751 5753 5754 5757 5760 5763 5766 5769 5771 5774 5777 5780 5784 5786 5788
5858 5856 5855 5854 5853 5852 5851 5850 5849 5848 5847 5845 5844 5843 5841 5840 5838 5836 5834 5833 5831 5829 5826 5824 5822 5820 5818 5815 5813 5811 5808 5806 5803 5801 5798 5796 5794 5791 5789 5787 5784 5782 5780 5778 5776 5773 5771 5768 5766 5764 5761 5759 5757 5755 5752 5749 5747 5746 5745 5744 5743 5743 5743 5743 5744 5744 5745 5745 5745 5746 5747 5749 5751 5753 5756 5759 5762 5765 5767 5770 5773 5776 5779 5782 5784
5856 5855 5853 5852 5851 5850 5849 5848 5847 5846 5845 5844 5843 5841 5840 5838 5836 5835 5833 5831 5829 5827 5825 5822 5820 5819 5816 5814 5812 5809 5807 5804 5802 5799 5797 5794 5792 5790 5787 5785 5783 5780 5778 5776 5774 5772 5769 5767 5764 5762 5760 5758 5756 5753 5751 5748 5746 5744 5742 5741 5741 5740 5740 5740 5741 5741 5741 5742 5742 5743 5744 5746 5748 5750 5753 5755 5758 5760 5763 5766 5769 5771 5774 5778 5780
5854 5853 5851 5850 5849 5848 5847 5847 5846 5844 5843 5842 5841 5839 5838 5836 5835 5833 5831 5829 5827 5825 5823 5821 5819 5817 5814 5812 5810 5808 5805 5803 5800 5798 5795 5793 5790 5788 5786 5784 5781 5779 5776 5774 5772 5770 5767 5765 5763 5761 5759 5756 5754 5752 5749 5747 5744 5742 5740 5739 5738 5738 5738 5738 5738 5738 5739 5739 5740 5741 5742 5743 5745 5747 5749 5751 5753 5756 5759 5762 5764 5767 5770 5773 5776
5852 5851 5849 5848 5847 5846 5845 5845 5844 5843 5841 5840 5839 5837 5836 5834 5833 5831 5830 5828 5825 5823 5821 5819 5817 5815 5812 5810 5808 5806 5804 5802 5799 5797 5794 5791 5789 5786 5784 5782 5780 5778 5775 5772 5770 5768 5766 5764 5761 5759 5757 5755 5753 5750 5748 5745 5743 5740 5738 5737 5736 5735 5735 5735 5735 5736 5736 5737 5738 5738 5739 5740 5742 5744 5745 5748 5750 5752 5754 5757 5760 5763 5765 5768 5772
5850 5849 5847 5846 5845 5844 5843 5843 5842 5841 5839 5838 5837 5835 5834 5833 5831 5829 5828 5825 5823 5821 5819 5817 5815 5813 5811 5809 5807 5805 5803 5801 5798 5795 5793 5790 5787 5785 5783 5781 5779 5776 5774 5771 5769 5767 5764 5762 5760 5757 5755 5753 5751 5749 5746 5744 5741 5738 5736 5735 5734 5732 5732 5732 5733 5733 5734 5734 5735 5736 5737 5738 5739 5740 5742 5744 5746 5748 5750 5753 5756 5759 5761 5764 5768
5848 5846 5845 5844 5843 5842 5842 5841 5840 5839 5837 5836 5835 5833 5832 5831 5829 5827 5825 5823 5821 5819 5817 5815 5813 5811 5809 5807 5806 5804 5802 5799 5797 5794 5792 5789 5786 5783 5781 5779 5777 5775 5772 5770 5767 5765 5763 5761 5758 5756 5753 5752 5750 5747 5745 5742 5740 5737 5734 5732 5731 5730 5729 5729 5730 5730 5731 5731 5732 5733 5734 5735 5736 5738 5739 5741 5742 5744 5746 5749 5752 5755 5757 5760 5763
5846 5844 5843 5842 5841 5840 5840 5839 5838 5837 5835 5834 5833 5832 5830 5829 5827 5825 5823 5821 5819 5817 5815 5813 5811 5809 5807 5806 5804 5802 5800 5798 5795 5793 5791 5788 5785 5783 5780 5777 5776 5774 5771 5769 5766 5764 5761 5759 5757 5754 5752 5750 5748 5746 5743 5741 5738 5735 5732 5730 5728 5727 5727 5726 5726 5727 5728 5728 5729 5730 5731 5732 5733 5735 5736 5738 5739 5741 5743 5745 5748 5750 5753 5756 5759
5844 5842 5841 5840 5839 5838 5838 5837 5836 5835 5833 5832 5831 5830 5828 5827 5825 5823 5821 5819 5817 5815 5813 5811 5809 5807 5806 5804 5802 5800 5799 5796 5794 5792 5789 5787 5785 5782 5779 5776 5774 5772 5769 5767 5765 5762 5760 5757 5755 5753 5750 5748 5746 5744 5741 5739 5736 5733 5730 5728 5726 5724 5724 5723 5724 5724 5725 5725 5726 5727 5728 5729 5730 5732 5733 5734 5735 5737 5739 5741 5743 5746 5749 5752 5754
5841 5840 5839 5838 5837 5836 5836 5835 5834 5832 5831 5830 5829 5828 5826 5825 5823 5821 5819 5817 5815 5813 5811 5809 5807 5806 5804 5802 5801 5799 5797 5795 5793 5791 5788 5786 5784 5781 5778 5775 5772 5770 5768 5766 5763 5761 5758 5756 5754 5751 5749 5746 5744 5742 5739 5737 5734 5731 5728 5725 5723 5722 5721 5721 5721 5721 5722 5722 5724 5725 5725 5726 5727 5728 5729 5730 5732 5733 5735 5737 5739 5742 5745 5748 5750
5839 5838 5837 5836 5835 5834 5834 5833 5832 5830 5829 5828 5827 5825 5824 5822 5821 5819 5817 5815 5813 5811 5809 5807 5806 5804 5803 5801 5799 5798 5796 5794 5791 5789 5787 5784 5782 5780 5777 5774 5771 5769 5767 5764 5762 5759 5757 5754 5752 5749 5747 5745 5742 5740 5737 5735 5732 5729 5726 5724 5721 5720 5719 5718 5718 5718 5719 5720 5721 5722 5722 5723 5724 5725 5726 5728 5729 5730 5732 5734 5735 5738 5741 5743 5746
5837 5835 5834 5834 5833 5832 5831 5830 5829 5828 5827 5826 5824 5823 5822 5820 5819 5817 5815 5813 5811 5809 5808 5806 5804 5803 5801 5800 5798 5796 5794 5792 5790 5787 5785 5783 5780 5778 5776 5773 5770 5767 5765 5763 5760 5758 5755 5753 5751 5748 5746 5743 5741 5738 5736 5733 5731 5728 5725 5722 5720 5718 5717 5716 5715 5715 5716 5717 5718 5719 5719 5720 5721 5722 5724 5725 5726 5728 5729 5731 5733 5735 5737 5740 5743
5834 5833 5832 5831 5830 5829 5829 5828 5827 5826 5825 5823 5822 5821 5819 5818 5816 5815 5813 5811 5809 5808 5806 5805 5803 5802 5800 5799 5797 5795 5793 5790 5788 5786 5783 5781 5779 5776 5774 5772 5770 5767 5764 5762 5759 5757 5754 5752 5750 5747 5745 5742 5740 5737 5734 5732 5729 5727 5724 5721 5719 5717 5715 5714 5714 5713 5714 5714 5715 5716 5717 5718 5719 5720 5721 5722 5724 5725 5727 5729 5730 5732 5734 5736 5739
5833 5831 5830 5829 5828 5827 5826 5826 5825 5823 5822 5821 5820 5818 5817 5816 5814 5813 5811 5809 5808 5806 5805 5803 5802 5800 5799 5797 5795 5793 5791 5789 5786 5784 5782 5779 5777 5775 5772 5771 5769 5766 5763 5760 5758 5755 5753 5751 5748 5746 5744 5741 5739 5736 5733 5730 5728 5725 5723 5720 5718 5716 5714 5713 5712 5711 5711 5712 5712 5713 5714 5715 5716 5717 5718 5720 5721 5723 5724 5726 5727 5729 5731 5732 5735
5831 5829 5828 5827 5826 5825 5824 5823 5822 5821 5820 5819 5817 5816 5815 5813 5812 5811 5809 5808 5806 5805 5803 5802 5800 5799 5797 5796 5794 5792 5789 5787 5785 5782 5780 5777 5775 5773 5771 5768 5767 5765 5762 5759 5756 5754 5752 5750 5747 5745 5743 5741 5738 5735 5732 5729 5727 5724 5722 5719 5717 5715 5713 5712 5711 5710 5709 5710 5710 5711 5712 5713 5713 5714 5716 5717 5718 5720 5721 5722 5724 5726 5728 5729 5732
5829 5827 5826 5825 5824 5823 5822 5821 5820 5819 5817 5816 5815 5814 5812 5811 5810 5808 5807 5806 5804 5803 5801 5800 5799 5797 5795 5794 5792 5790 5788 5785 5783 5781 5778 5776 5774 5771 5769 5767 5764 5762 5760 5757 5755 5752 5750 5748 5746 5744 5742 5740 5737 5734 5731 5729 5726 5723 5721 5719 5716 5714 5713 5711 5709 5708 5708 5708 5708 5708 5709 5710 5711 5712 5713 5714 5715 5717 5718 5719 5721 5723 5725 5727 5729
5827 5825 5824 5823 5822 5821 5820 5819 5818 5816 5815 5814 5813 5812 5810 5809 5808 5806 5805 5804 5802 5801 5800 5798 5797 5795 5793 5792 5790 5788 5786 5784 5782 5780 5777 5775 5772 5770 5767 5765 5763 5760 5758 5756 5753 5751 5749 5747 5744 5742 5740 5738 5736 5734 5731 5728 5725 5722 5720 5718 5716 5714 5712 5710 5709 5707 5707 5706 5706 5706 5707 5707 5708 5709 5710 5711 5712 5714 5715 5717 5719 5720 5722 5724 5726
5825 5823 5822 5821 5820 5819 5818 5817 5815 5814 5813 5812 5811 5809 5808 5807 5806 5804 5803 5802 5801 5799 5798 5796 5795 5793 5791 5790 5788 5787 5785 5783 5780 5778 5776 5774 5771 5768 5766 5764 5761 5759 5757 5754 5752 5749 5747 5745 5743 5741 5739 5737 5735 5732 5730 5727 5725 5722 5719 5717 5714 5713 5711 5709 5708 5707 5705 5705 5704 5704 5705 5705 5706 5707 5707 5708 5710 5711 5712 5714 5716 5718 5720 5722 5724
5823 5821 5820 5819 5818 5817 5816 5815 5813 5812 5811 5810 5808 5807 5806 5805 5804 5803 5801 5800 5799 5798 5796 5794 5793 5792 5790 5788 5786 5785 5783 5781 5779 5777 5775 5773 5770 5768 5765 5763 5760 5757 5755 5753 5750 5748 5746 5744 5742 5739 5737 5735 5733 5731 5728 5726 5724 5722 5719 5716 5713 5711 5710 5708 5707 5706 5704 5703 5703 5702 5703 5703 5704 5704 5705 5706 5707 5708 5709 5711 5713 5715 5717 5719 5721
5821 5819 5818 5817 5816 5815 5814 5813 5811 5810 5809 5808 5807 5805 5804 5803 5802 5801 5800 5799 5797 5796 5794 5793 5791 5790 5788 5786 5785 5783 5782 5780 5777 5775 5773 5771 5769 5767 5764 5761 5759 5756 5754 5751 5749 5746 5744 5742 5740 5738 5736 5734 5732 5729 5727 5724 5722 5720 5717 5715 5712 5711 5709 5707 5706 5704 5703 5702 5701 5701 5701 5701 5701 5702 5702 5703 5704 5705 5707 5708 5710 5711 5713 5715 5717
5819 5818 5817 5816 5815 5813 5812 5811 5810 5808 5807 5806 5805 5804 5803 5801 5800 5799 5798 5797 5796 5794 5793 5791 5790 5788 5786 5785 5783 5781 5780 5778 5776 5773 5771 5768 5766 5764 5762 5759 5757 5755 5752 5750 5747 5745 5742 5740 5738 5736 5734 5732 5730 5728 5726 5723 5721 5718 5716 5714 5712 5710 5708 5706 5705 5703 5702 5701 5700 5699 5699 5699 5699 5699 5700 5701 5701 5703 5704 5705 5706 5708 5709 5712 5714
5817 5816 5815 5814 5813 5811 5810 5809 5808 5807 5806 5804 5803 5802 5801 5800 5799 5798 5797 5795 5794 5792 5791 5790 5788 5786 5785 5783 5781 5780 5778 5776 5774 5772 5769 5767 5764 5762 5760 5758 5755 5753 5751 5748 5746 5743 5741 5738 5736 5734 5732 5730 5729 5727 5725 5723 5720 5717 5715 5714 5712 5709 5707 5705 5703 5702 5701 5699 5698 5698 5697 5697 5697 5697 5697 5698 5699 5700 5701 5702 5703 5705 5706 5709 5710
5816 5815 5813 5812 5811 5810 5809 5808 5806 5805 5804 5803 5801 5800 5799 5798 5797 5796 5795 5793 5792 5791 5790 5788 5787 5785 5783 5781 5780 5778 5777 5775 5773 5771 5769 5766 5764 5761 5758 5756 5753 5751 5749 5746 5744 5742 5739 5737 5734 5732 5730 5729 5727 5725 5724 5722 5719 5717 5715 5713 5711 5708 5706 5703 5701 5700 5699 5697 5697 5696 5695 5695 5694 5694 5695 5695 5696 5697 5698 5699 5700 5702 5704 5705 5707
5814 5813 5812 5811 5810 5808 5807 5806 5805 5803 5802 5801 5800 5799 5798 5797 5795 5794 5793 5792 5791 5790 5788 5787 5785 5783 5781 5780 5778 5777 5775 5773 5771 5769 5767 5764 5762 5759 5757 5754 5752 5749 5747 5745 5742 5740 5738 5736 5734 5732 5729 5728 5726 5724 5722 5720 5718 5716 5715 5712 5710 5707 5705 5702 5700 5698 5697 5695 5694 5694 5693 5692 5692 5692 5692 5692 5693 5694 5695 5696 5697 5699 5701 5702 5704
5812 5811 5810 5809 5808 5807 5806 5805 5803 5802 5801 5800 5799 5798 5796 5795 5794 5792 5792 5791 5789 5788 5786 5785 5783 5781 5780 5778 5776 5774 5773 5771 5769 5766 5764 5762 5759 5757 5755 5753 5750 5748 5746 5744 5742 5740 5738 5736 5734 5731 5729 5727 5724 5723 5721 5719 5717 5715 5713 5711 5709 5706 5704 5701 5698 5696 5695 5693 5692 5691 5691 5690 5689 5689 5689 5689 5690 5691 5692 5693 5694 5696 5698 5700 5701
5811 5810 5809 5808 5806 5805 5804 5803 5802 5801 5799 5798 5797 5796 5795 5794 5793 5792 5791 5790 5788 5787 5785 5783 5781 5780 5778 5776 5774 5772 5770 5768 5766 5764 5762 5760 5757 5755 5753 5751 5749 5747 5745 5743 5741 5739 5737 5735 5733 5730 5728 5726 5724 5722 5720 5718 5716 5714 5712 5709 5707 5705 5703 5700 5698 5695 5693 5691 5690 5689 5687 5686 5686 5685 5685 5686 5687 5688 5689 5690 5692 5693 5695 5697 5699
5809 5808 5807 5806 5805 5803 5802 5801 5800 5799 5798 5797 5796 5794 5793 5792 5791 5791 5789 5788 5787 5785 5783 5782 5780 5778 5776 5774 5772 5769 5768 5766 5764 5762 5760 5758 5756 5753 5751 5749 5747 5745 5743 5741 5740 5738 5736 5734 5732 5730 5727 5725 5723 5721 5719 5717 5715 5713 5711 5708 5706 5703 5701 5699 5697 5694 5691 5689 5688 5686 5684 5683 5682 5682 5682 5683 5684 5685 5686 5688 5689 5691 5693 5694 5696
5807 5806 5805 5804 5803 5802 5801 5800 5799 5797 5796 5795 5794 5793 5792 5791 5790 5789 5788 5786 5785 5783 5781 5780 5778 5776 5774 5772 5770 5768 5766 5764 5762 5760 5758 5756 5754 5752 5750 5748 5746 5744 5742 5741 5739 5737 5735 5733 5731 5729 5727 5724 5722 5720 5718 5716 5714 5712 5710 5707 5705 5702 5700 5697 5695 5693 5690 5688 5686 5684 5682 5680 5679 5679 5679 5680 5681 5683 5684 5686 5687 5689 5690 5692 5694
5806 5804 5803 5802 5801 5800 5799 5798 5797 5796 5795 5794 5793 5792 5791 5790 5789 5788 5787 5785 5783 5781 5780 5778 5776 5774 5773 5771 5769 5767 5765 5763 5761 5759 5757 5755 5753 5751 5749 5747 5745 5743 5742 5740 5738 5736 5734 5732 5730 5728 5726 5724 5722 5720 5717 5715 5713 5711 5709 5707 5704 5702 5699 5696 5694 5692 5690 5687 5685 5682 5680 5679 5678 5677 5678 5679 5680 5681 5683 5684 5686 5687 5689 5690 5692
5804 5803 5802 5801 5800 5799 5797 5796 5795 5794 5793 5792 5792 5791 5790 5789 5788 5787 5786 5784 5782 5780 5778 5776 5775 5773 5771 5769 5767 5766 5764 5762 5760 5758 5756 5754 5752 5750 5748 5746 5744 5742 5740 5739 5737 5735 5733 5731 5730 5727 5725 5723 5721 5719 5717 5714 5712 5710 5708 5706 5704 5701 5699 5696 5693 5691 5689 5687 5684 5682 5680 5679 5678 5678 5678 5678 5679 5680 5682 5683 5685 5686 5687 5689 5690
5803 5801 5800 5799 5797 5796 5795 5794 5793 5792 5792 5791 5790 5789 5788 5788 5787 5786 5784 5783 5782 5780 5778 5776 5773 5771 5770 5768 5766 5764 5763 5761 5759 5757 5755 5753 5751 5749 5747 5745 5743 5741 5739 5737 5736 5734 5732 5731 5729 5727 5725 5723 5720 5718 5716 5714 5712 5710 5708 5705 5703 5701 5698 5696 5693 5691 5689 5687 5685 5683 5681 5680 5679 5678 5678 5678 5679 5680 5681 5682 5683 5684 5686 5687 5688
5801 5799 5798 5796 5795 5794 5793 5792 5791 5790 5790 5789 5788 5787 5787 5786 5785 5784 5783 5781 5780 5778 5776 5775 5773 5771 5769 5767 5765 5763 5761 5760 5758 5756 5754 5752 5750 5748 5746 5744 5742 5740 5738 5736 5734 5733 5731 5730 5728 5726 5724 5722 5719 5717 5715 5713 5711 5709 5707 5705 5702 5700 5698 5696 5694 5691 5689 5687 5685 5684 5682 5681 5680 5679 5679 5679 5679 5679 5680 5681 5681 5682 5684 5685 5686
5798 5797 5796 5794 5793 5792 5791 5790 5789 5788 5788 5787 5786 5786 5785 5784 5783 5782 5781 5779 5778 5776 5775 5773 5771 5770 5768 5766 5764 5761 5760 5758 5756 5754 5753 5751 5749 5747 5745 5743 5741 5739 5737 5735 5733 5732 5730 5728 5726 5724 5723 5721 5719 5716 5714 5712 5711 5709 5707 5704 5702 5700 5697 5696 5694 5692 5690 5687 5686 5684 5682 5681 5680 5679 5679 5679 5679 5679 5679 5679 5680 5681 5682 5683 5684
5796 5795 5794 5792 5791 5790 5789 5788 5787 5787 5786 5785 5784 5784 5783 5782 5781 5780 5779 5777 5776 5774 5773 5771 5769 5767 5765 5764 5762 5760 5758 5756 5754 5753 5751 5749 5747 5745 5743 5741 5739 5738 5736 5734 5732 5731 5729 5727 5726 5724 5722 5720 5718 5716 5714 5712 5710 5708 5706 5703 5701 5699 5697 5695 5694 5692 5690 5688 5686 5684 5683 5681 5680 5679 5679 5678 5678 5678 5678 5678 5679 5679 5680 5681 5682
5794 5793 5792 5791 5790 5789 5788 5787 5786 5785 5784 5783 5783 5782 5781 5780 5779 5778 5777 5775 5774 5772 5770 5769 5767 5765 5763 5762 5760 5758 5756 5754 5753 5751 5749 5747 5745 5743 5741 5739 5737 5736 5734 5732 5731 5729 5728 5726 5725 5723 5721 5719 5717 5715 5713 5711 5709 5707 5705 5703 5701 5699 5697 5695 5694 5692 5690 5688 5686 5684 5683 5681 5680 5679 5678 5678 5677 5677 5677 5677 5677 5677 5678 5679 5680
5793 5792 5791 5789 5788 5787 5786 5785 5784 5783 5783 5782 5781 5780 5779 5778 5777 5776 5775 5773 5772 5770 5769 5767 5765 5763 5762 5760 5758 5756 5755 5753 5751 5749 5748 5746 5744 5742 5740 5738 5736 5734 5732 5730 5729 5727 5726 5725 5723 5721 5720 5718 5716 5714 5712 5711 5709 5707 5704 5702 5700 5698 5697 5695 5694 5692 5690 5688 5686 5684 5683 5681 5680 5679 5678 5677 5677 5676 5676 5676 5676 5676 5676 5677 5678
5791 5790 5789 5788 5787 5786 5785 5784 5783 5782 5781 5780 5779 5778 5777 5776 5775 5774 5772 5771 5770 5768 5767 5765 5763 5761 5759 5758 5756 5755 5753 5751 5749 5747 5746 5744 5742 5741 5739 5737 5735 5733 5731 5729 5727 5726 5724 5723 5721 5720 5718 5716 5714 5713 5711 5710 5708 5706 5704 5701 5699 5697 5696 5695 5693 5692 5690 5688 5686 5685 5683 5681 5680 5679 5678 5677 5676 5675 5675 5674 5674 5674 5674 5675 5675
5790 5789 5788 5786 5785 5784 5783 5782 5781 5780 5779 5778 5777 5776 5775 5774 5772 5771 5770 5769 5767 5766 5764 5763 5761 5759 5757 5755 5754 5752 5751 5749 5747 5745 5744 5742 5741 5739 5737 5736 5734 5732 5730 5728 5726 5724 5723 5721 5720 5718 5716 5715 5713 5711 5710 5708 5707 5705 5703 5701 5699 5697 5695 5694 5693 5691 5690 5688 5686 5685 5683 5681 5680 5678 5677 5676 5675 5674 5674 5673 5672 5672 5672 5672 5673
5789 5788 5787 5785 5784 5783 5782 5781 5780 5779 5778 5777 5775 5774 5773 5772 5771 5769 5768 5766 5765 5763 5762 5760 5759 5757 5755 5753 5751 5750 5748 5746 5745 5743 5742 5740 5738 5737 5735 5734 5733 5731 5729 5727 5725 5724 5722 5720 5719 5717 5715 5714 5712 5710 5709 5707 5706 5704 5703 5700 5698 5696 5694 5693 5692 5690 5689 5687 5686 5684 5683 5681 5680 5678 5677 5676 5675 5674 5673 5672 5671 5671 5670 5671 5671
5788 5787 5786 5785 5783 5782 5781 5780 5779 5777 5776 5775 5774 5772 5771 5770 5769 5767 5766 5764 5762 5761 5759 5758 5757 5755 5753 5751 5749 5747 5745 5744 5742 5741 5739 5738 5736 5734 5733 5732 5731 5729 5728 5726 5724 5723 5721 5719 5718 5716 5714 5713 5711 5709 5707 5706 5704 5703 5701 5700 5698 5696 5694 5692 5691 5690 5688 5686 5685 5684 5683 5681 5680 5678 5677 5675 5674 5673 5672 5671 5670 5670 5669 5669 5669
5787 5786 5785 5783 5782 5781 5780 5778 5777 5776 5774 5773 5772 5770 5769 5767 5766 5764 5763 5761 5760 5758 5757 5755 5754 5752 5751 5749 5747 5745 5743 5741 5740 5738 5737 5735 5734 5732 5731 5729 5728 5726 5725 5723 5722 5720 5719 5718 5717 5715 5713 5711 5709 5707 5706 5704 5703 5701 5700 5699 5697 5696 5694 5691 5690 5689 5687 5686 5684 5682 5681 5680 5679 5678 5677 5675 5674 5672 5671 5670 5669 5669 5668 5668 5668
5786 5785 5783 5782 5781 5780 5779 5777 5776 5775 5773 5772 5770 5768 5767 5765 5764 5762 5761 5759 5757 5756 5754 5753 5751 5750 5748 5746 5745 5743 5741 5739 5737 5735 5734 5732 5731 5729 5727 5726 5724 5722 5721 5720 5719 5718 5717 5716 5714 5713 5711 5709 5707 5706 5704 5703 5701 5700 5698 5697 5696 5695 5693 5691 5689 5687 5686 5685 5683 5682 5680 5679 5678 5677 5676 5675 5673 5672 5670 5669 5668 5668 5667 5667 5666
5785 5783 5782 5781 5779 5778 5777 5775 5774 5772 5771 5769 5768 5766 5765 5763 5762 5760 5758 5757 5755 5753 5752 5750 5748 5747 5745 5743 5741 5739 5738 5736 5734 5733 5731 5730 5728 5726 5724 5723 5721 5720 5718 5717 5716 5715 5713 5712 5711 5709 5708 5706 5705 5703 5702 5701 5699 5698 5696 5695 5694 5693 5692 5690 5688 5686 5685 5684 5682 5681 5679 5677 5676 5675 5675 5674 5673 5671 5670 5668 5667 5666 5666 5666 5665
5783 5782 5780 5779 5777 5776 5775 5773 5772 5770 5769 5767 5766 5765 5763 5762 5760 5758 5757 5755 5753 5751 5748 5746 5745 5743 5741 5740 5738 5736 5734 5732 5731 5729 5728 5726 5725 5723 5722 5720 5719 5717 5716 5715 5713 5711 5710 5708 5707 5705 5704 5703 5702 5701 5700 5698 5697 5695 5694 5693 5692 5691 5690 5689 5687 5685 5683 5682 5681 5680 5678 5676 5675 5674 5673 5672 5671 5670 5669 5668 5666 5665 5665 5664 5664
5781 5779 5778 5777 5775 5774 5773 5771 5770 5768 5766 5765 5763 5762 5760 5759 5757 5755 5754 5752 5750 5748 5745 5743 5742 5740 5738 5736 5735 5733 5731 5730 5728 5726 5724 5723 5721 5719 5718 5717 5716 5714 5713 5711 5710 5708 5706 5704 5703 5701 5700 5699 5698 5697 5696 5695 5693 5692 5691 5690 5689 5688 5687 5686 5685 5684 5682 5680 5679 5678 5677 5675 5674 5672 5671 5670 5669 5669 5668 5667 5666 5665 5664 5663 5663